Location: ???????
(38.3360°N, 23.6977°E)
Time: 05:00:18
(UTC+00:00)

COSMOS 2406 - Pass Details

Date: 17 November 2025
Orbit: 845 x 859 km, 71.0° (Epoch: 09 December)

Event Time Altitude Azimuth Distance (km) Brightness Sun altitude
Rises 16:38:44 0° 346° (NNW) 3,413 6.4 -17.2°
Reaches altitude 10° 16:41:26 10° 356° (N) 2,476 5.6 -17.7°
Maximum altitude 16:46:32 33° 60° (ENE) 1,388 3.8 -18.7°
Enters shadow 16:47:01 33° 70° (ENE) 1,402 3.8 -18.8°
